This demonstration page uses our WeatherBlox Daily Observations layout. Learn more.

Left ArrowRight Arrow

39.95233, -75.16379

Hourly Observations for January 28, 2022

Temp ( °F °C ) Dew Point ( °F °C ) Humidity (%) Winds ( mph kmh ) Pressure ( in mb ) Visibility ( mi km ) Precip ( " mm )
12:54 am 00:54 Cloudy 30 -1.1 17 -8.3 58 58 Calm 30.21 1023 10 16 0.00 0.00
1:54 am 01:54 Cloudy 31 -0.6 17 -8.3 56 56 S 5 7 30.20 1023 10 16 0.00 0.00
2:54 am 02:54 Cloudy 31 -0.6 18 -7.8 59 59 Calm 30.19 1022 10 16 0.00 0.00
3:54 am 03:54 Cloudy 31 -0.6 18 -7.8 59 59 S 5 7 30.16 1021 10 16 0.00 0.00
4:54 am 04:54 Cloudy 29 -1.7 18 -7.8 63 63 Calm 30.15 1021 10 16 0.00 0.00
5:54 am 05:54 Cloudy 31 -0.6 19 -7.2 61 61 Calm 30.15 1021 10 16 0.00 0.00
6:54 am 06:54 Cloudy 32 0 19 -7.2 59 59 SW 3 6 30.16 1021 10 16 0.00 0.00
7:54 am 07:54 Cloudy 32 0 19 -7.2 59 59 Calm 30.16 1021 10 16 0.00 0.00
8:48 am 08:48 Cloudy with Light Snow 34 1 19 -7 56 56 NNW 5 7 30.16 1021 10 16 0.00 0.00
8:54 am 08:54 Cloudy with Light Snow 33 0.6 20 -6.7 58 58 N 3 6 30.16 1021 7 11 0.00 0.00
8:57 am 08:57 Cloudy with Light Snow 33 0.6 20 -6.7 58 58 Calm 30.16 1021 5 8 0.00 0.00
9:04 am 09:04 Cloudy with Light Snow 33 0.6 20 -6.7 58 58 NNW 3 6 30.16 1021 4 6 0.00 0.00
9:49 am 09:49 Cloudy with Light Snow 32 0 23 -5 69 69 NNW 3 6 30.16 1021 2 3 0.00 0.00
9:54 am 09:54 Cloudy with Light Snow 32 0 24 -4.4 73 73 Calm 30.16 1021 1 2 0.00 0.00
10:18 am 10:18 Cloudy with Light Snow 32 0 25 -3.9 75 75 Calm 30.16 1021 2 3 0.00 0.00
10:24 am 10:24 Cloudy with Light Snow 32 0 26 -3.3 79 79 Calm 30.16 1021 3 5 0.00 0.00
10:34 am 10:34 Cloudy with Light Snow 32 0 26 -3.3 79 79 Calm 30.16 1021 5 8 0.00 0.00
10:54 am 10:54 Cloudy with Light Snow 32 0 26 -3.3 79 79 Calm 30.16 1021 5 8 0.00 0.00
10:56 am 10:56 Cloudy with Light Snow 32 0 26 -3.3 79 79 Calm 30.16 1021 3 5 0.00 0.00
11:24 am 11:24 Cloudy with Light Snow 32 0 26 -3.3 79 79 Calm 30.15 1021 5 8 0.00 0.00
11:54 am 11:54 Cloudy with Light Snow 33 0.6 27 -2.8 78 78 Calm 30.14 1021 5 8 0.00 0.00
12:06 pm 12:06 Cloudy with Light Snow 33 0.6 27 -2.8 78 78 Calm 30.13 1020 3 5 0.00 0.00
12:10 pm 12:10 Cloudy with Light Snow 33 0.6 27 -2.8 78 78 NNE 5 7 30.13 1020 2 2 0.00 0.00
12:27 pm 12:27 Cloudy with Light Snow 34 1.1 27 -2.8 76 76 NE 5 7 30.12 1020 2 2 0.01 0.25
12:44 pm 12:44 Cloudy with Light Snow 34 1.1 28 -2.2 79 79 E 3 6 30.11 1020 2 3 0.01 0.25
12:54 pm 12:54 Cloudy with Light Snow 34 1.1 29 -1.7 82 82 NE 5 7 30.10 1019 3 4 0.01 0.25
1:14 pm 13:14 Cloudy with Light Snow 35 1.7 29 -1.7 78 78 NE 7 11 30.10 1019 2 3 0.00 0.00
1:43 pm 13:43 Cloudy with Light Snow 35 1.7 29 -1.7 78 78 N 6 9 30.08 1019 3 5 0.00 0.00
1:54 pm 13:54 Cloudy with Light Snow 35 1.7 29 -1.7 78 78 NNE 8 13 30.07 1018 3 5 0.00 0.00
2:42 pm 14:42 Cloudy with Light Snow 35 1.7 29 -1.7 78 78 ENE 7 11 30.06 1018 5 8 0.00 0.00
2:54 pm 14:54 Cloudy with Light Snow 36 2.2 29 -1.7 76 76 ENE 9 15 30.05 1018 5 8 0.00 0.00
3:47 pm 15:47 Cloudy 35 1.7 29 -1.7 78 78 NE 8 13 30.04 1017 7 11 0.00 0.00
3:54 pm 15:54 Cloudy 35 1.7 29 -1.7 78 78 NE 8 13 30.04 1017 7 11 0.00 0.00
4:37 pm 16:37 Cloudy with Light Snow 35 1.7 28 -2.2 76 76 NE 6 9 30.03 1017 6 10 0.00 0.00
4:54 pm 16:54 Cloudy with Light Snow 35 1.7 28 -2.2 76 76 NE 7 11 30.02 1017 4 6 0.00 0.00
5:03 pm 17:03 Cloudy with Light Snow 34 1.1 28 -2.2 79 79 NE 7 11 30.02 1017 2 3 0.00 0.00
5:54 pm 17:54 Cloudy with Light Snow 34 1.1 29 -1.7 82 82 NE 6 9 30.01 1016 2 3 0.00 0.00
6:12 pm 18:12 Cloudy with Light Snow 34 1.1 29 -1.7 82 82 ENE 7 11 30.02 1017 2 2 0.00 0.00
6:54 pm 18:54 Cloudy with Light Snow 33 0.6 29 -1.7 85 85 NE 8 13 30.01 1016 1 2 0.01 0.25
7:48 pm 19:48 Cloudy with Light Snow 32 0 28 -2 87 87 NNE 10 17 30.00 1016 1 2 0.03 0.76
7:54 pm 19:54 Cloudy with Light Snow 32 0 29 -1.7 88 88 NNE 12 19 30.00 1016 1 2 0.03 0.76
8:54 pm 20:54 Cloudy with Light Snow 33 0.6 29 -1.7 85 85 NNE 9 15 29.99 1016 1 2 0.01 0.25
9:21 pm 21:21 Cloudy with Light Snow 33 0.6 29 -1.7 85 85 NNE 12 19 29.97 1015 1 2 0.01 0.25
9:54 pm 21:54 Cloudy with Light Snow 32 0 29 -1.7 88 88 NNE 14 22 29.96 1015 1 2 0.02 0.51
10:06 pm 22:06 Cloudy with Light Snow 32 0 29 -1.7 88 88 NNE 15 24 29.95 1014 2 3 0.01 0.25
10:14 pm 22:14 Cloudy with Light Snow 32 0 28 -2.2 85 85 NNE 12 19 29.95 1014 2 3 0.01 0.25
10:31 pm 22:31 Cloudy with Light Snow 32 0 28 -2.2 85 85 N 14 22 29.94 1014 2 2 0.01 0.25
10:54 pm 22:54 Cloudy with Light Snow 32 0 28 -2.2 85 85 NNE 15 24 29.92 1013 1 2 0.02 0.51
11:54 pm 23:54 Cloudy with Light Snow 32 0 27 -2.8 82 82 N 14 22 29.90 1012 1 2 0.01 0.25

Powered by AerisWeather